When you browse on this site, cookies collect data to enhance your experience and personalize the content and advertising you see.
Visit our Privacy Policy to learn more. By continuing to use the site, you agree to this use of cookies and data.
  • In Lithuania
  • List of Countries
  • For 7 days
  • Water Temperature
  • Weather Map
  • Weather Widgets
  • user-avatar
    Login

    Hourly Weather Shusha

    Today, 24 August, Saturday

    Time Temperature Precipitation Wind Pressure Humidity
    00:00 +20°C° 0 mm 2 mps 659 mmHg 44%
    01:00 +19°C° 0 mm 2 mps 659 mmHg 44%
    02:00 +19°C° 0 mm 2 mps 659 mmHg 45%
    03:00 +20°C° 0 mm 1 mps 659 mmHg 47%
    04:00 +19°C° 0 mm 2 mps 659 mmHg 48%
    05:00 +19°C° 0 mm 2 mps 660 mmHg 49%
    06:00 +19°C° 0 mm 2 mps 660 mmHg 51%
    07:00 +21°C° 0 mm 2 mps 661 mmHg 47%
    08:00 +24°C° 0 mm 2 mps 661 mmHg 44%
    09:00 +27°C° 0 mm 2 mps 662 mmHg 40%
    10:00 +28°C° 0 mm 2 mps 662 mmHg 38%
    11:00 +29°C° 0 mm 3 mps 662 mmHg 36%
    12:00 +30°C° 0 mm 3 mps 662 mmHg 33%
    13:00 +30°C° 0 mm 3 mps 661 mmHg 33%
    14:00 +31°C° 0 mm 3 mps 661 mmHg 32%
    15:00 +31°C° 0 mm 3 mps 661 mmHg 31%
    16:00 +30°C° 0 mm 4 mps 661 mmHg 30%
    17:00 +29°C° 0 mm 4 mps 660 mmHg 29%
    18:00 +28°C° 0 mm 4 mps 660 mmHg 28%
    19:00 +26°C° 0 mm 3 mps 660 mmHg 31%
    20:00 +24°C° 0 mm 3 mps 660 mmHg 34%
    21:00 +21°C° 0 mm 2 mps 660 mmHg 37%
    22:00 +21°C° 0 mm 2 mps 660 mmHg 37%
    23:00 +21°C° 0 mm 2 mps 660 mmHg 38%

    Tomorrow, 25 August, Sunday

    Time Temperature Precipitation Wind Pressure Humidity
    00:00 +20°C° 0 mm 2 mps 660 mmHg 38%
    01:00 +20°C° 0 mm 2 mps 660 mmHg 38%
    02:00 +20°C° 0 mm 2 mps 660 mmHg 39%
    03:00 +19°C° 0 mm 2 mps 660 mmHg 39%
    04:00 +19°C° 0 mm 2 mps 660 mmHg 39%
    05:00 +19°C° 0 mm 2 mps 660 mmHg 39%
    06:00 +19°C° 0 mm 2 mps 660 mmHg 39%
    07:00 +23°C° 0 mm 2 mps 661 mmHg 36%
    08:00 +25°C° 0 mm 2 mps 661 mmHg 33%
    09:00 +27°C° 0 mm 2 mps 662 mmHg 30%
    10:00 +28°C° 0 mm 3 mps 662 mmHg 29%
    11:00 +29°C° 0 mm 3 mps 662 mmHg 29%
    12:00 +30°C° 0 mm 3 mps 661 mmHg 29%
    13:00 +30°C° 0 mm 3 mps 661 mmHg 28%
    14:00 +31°C° 0 mm 3 mps 661 mmHg 27%
    15:00 +31°C° 0 mm 3 mps 661 mmHg 27%
    16:00 +30°C° 0 mm 3 mps 660 mmHg 29%
    17:00 +29°C° 0 mm 3 mps 660 mmHg 30%
    18:00 +28°C° 0 mm 2 mps 660 mmHg 32%
    19:00 +26°C° 0 mm 2 mps 660 mmHg 35%
    20:00 +24°C° 0 mm 1 mps 660 mmHg 38%
    21:00 +22°C° 0 mm 1 mps 660 mmHg 41%
    22:00 +21°C° 0 mm 1 mps 660 mmHg 40%
    23:00 +21°C° 0 mm 1 mps 660 mmHg 40%

    Day after tomorrow, 26 August, Monday

    Time Temperature Precipitation Wind Pressure Humidity
    00:00 +20°C° 0 mm 1 mps 660 mmHg 40%
    01:00 +20°C° 0 mm 1 mps 660 mmHg 40%
    02:00 +19°C° 0 mm 1 mps 660 mmHg 40%
    03:00 +19°C° 0 mm 1 mps 660 mmHg 40%
    04:00 +19°C° 0 mm 1 mps 660 mmHg 41%
    05:00 +19°C° 0 mm 1 mps 660 mmHg 41%
    06:00 +19°C° 0 mm 1 mps 661 mmHg 41%
    07:00 +21°C° 0 mm 1 mps 661 mmHg 35%
    08:00 +23°C° 0 mm 2 mps 662 mmHg 30%
    09:00 +26°C° 0 mm 2 mps 663 mmHg 24%
    10:00 +27°C° 0 mm 3 mps 663 mmHg 23%
    11:00 +28°C° 0 mm 3 mps 663 mmHg 21%
    12:00 +29°C° 0 mm 4 mps 663 mmHg 20%
    13:00 +29°C° 0 mm 4 mps 663 mmHg 20%
    14:00 +29°C° 0 mm 5 mps 662 mmHg 20%
    15:00 +29°C° 0 mm 5 mps 662 mmHg 21%
    16:00 +27°C° 0 mm 5 mps 662 mmHg 26%
    17:00 +26°C° 0 mm 4 mps 661 mmHg 30%
    18:00 +23°C° 0 mm 4 mps 661 mmHg 35%
    19:00 +21°C° 0.1 mm 3 mps 661 mmHg 41%
    20:00 +19°C° 0.1 mm 3 mps 662 mmHg 47%
    21:00 +17°C° 0.1 mm 2 mps 662 mmHg 53%
    22:00 +18°C° 0.1 mm 2 mps 662 mmHg 54%
    23:00 +18°C° 0.1 mm 2 mps 662 mmHg 56%

    27 August, Tuesday

    Time Temperature Precipitation Wind Pressure Humidity
    00:00 +18°C° 0.1 mm 2 mps 662 mmHg 57%
    01:00 +17°C° 0 mm 2 mps 662 mmHg 59%
    02:00 +17°C° 0 mm 2 mps 662 mmHg 60%
    03:00 +16°C° 0 mm 1 mps 662 mmHg 62%
    04:00 +16°C° 0 mm 1 mps 662 mmHg 62%
    05:00 +16°C° 0 mm 1 mps 662 mmHg 62%
    06:00 +16°C° 0 mm 1 mps 662 mmHg 61%
    07:00 +18°C° 0 mm 2 mps 662 mmHg 55%
    08:00 +20°C° 0 mm 2 mps 662 mmHg 48%
    09:00 +22°C° 0 mm 3 mps 663 mmHg 41%
    10:00 +24°C° 0 mm 3 mps 663 mmHg 38%
    11:00 +26°C° 0 mm 3 mps 662 mmHg 35%
    12:00 +27°C° 0 mm 4 mps 662 mmHg 32%
    13:00 +27°C° 0 mm 4 mps 662 mmHg 32%
    14:00 +28°C° 0 mm 4 mps 661 mmHg 32%
    15:00 +28°C° 0 mm 4 mps 660 mmHg 31%
    16:00 +27°C° 0 mm 3 mps 660 mmHg 35%
    17:00 +26°C° 0 mm 2 mps 660 mmHg 39%
    18:00 +24°C° 0 mm 2 mps 660 mmHg 42%
    19:00 +23°C° 0 mm 1 mps 660 mmHg 48%
    20:00 +21°C° 0 mm 1 mps 659 mmHg 54%
    21:00 +20°C° 0 mm 1 mps 659 mmHg 60%
    22:00 +19°C° 0 mm 1 mps 659 mmHg 60%
    23:00 +19°C° 0 mm 1 mps 658 mmHg 61%

    28 August, Wednesday

    Time Temperature Precipitation Wind Pressure Humidity
    00:00 +19°C° 0 mm 1 mps 658 mmHg 61%
    01:00 +18°C° 0 mm 1 mps 658 mmHg 62%
    02:00 +18°C° 0 mm 1 mps 658 mmHg 62%
    03:00 +18°C° 0 mm 1 mps 658 mmHg 62%
    04:00 +18°C° 0 mm 1 mps 658 mmHg 62%
    05:00 +18°C° 0 mm 1 mps 658 mmHg 61%
    06:00 +19°C° 0 mm 1 mps 658 mmHg 60%
    07:00 +21°C° 0 mm 1 mps 658 mmHg 54%
    08:00 +23°C° 0 mm 2 mps 659 mmHg 48%
    09:00 +25°C° 0 mm 2 mps 660 mmHg 42%
    10:00 +26°C° 0 mm 3 mps 660 mmHg 41%
    11:00 +27°C° 0 mm 3 mps 660 mmHg 39%
    12:00 +28°C° 0 mm 4 mps 660 mmHg 37%
    13:00 +28°C° 0 mm 3 mps 660 mmHg 37%
    14:00 +29°C° 0 mm 3 mps 659 mmHg 37%
    15:00 +29°C° 0 mm 3 mps 659 mmHg 36%
    16:00 +28°C° 0.1 mm 3 mps 659 mmHg 40%
    17:00 +27°C° 0.1 mm 3 mps 659 mmHg 43%
    18:00 +25°C° 0.1 mm 2 mps 658 mmHg 47%
    19:00 +23°C° 0 mm 2 mps 659 mmHg 52%
    20:00 +21°C° 0 mm 2 mps 659 mmHg 58%
    21:00 +20°C° 0 mm 1 mps 659 mmHg 63%
    22:00 +19°C° 0 mm 1 mps 659 mmHg 64%
    23:00 +19°C° 0 mm 1 mps 659 mmHg 64%

    29 August, Thursday

    Time Temperature Precipitation Wind Pressure Humidity
    00:00 +19°C° 0 mm 1 mps 659 mmHg 64%
    01:00 +18°C° 0 mm 1 mps 659 mmHg 64%
    02:00 +18°C° 0 mm 1 mps 659 mmHg 64%
    03:00 +18°C° 0 mm 1 mps 659 mmHg 64%
    04:00 +18°C° 0 mm 1 mps 660 mmHg 63%
    05:00 +18°C° 0 mm 1 mps 660 mmHg 62%
    06:00 +18°C° 0 mm 1 mps 660 mmHg 61%
    07:00 +20°C° 0 mm 1 mps 661 mmHg 54%
    08:00 +21°C° 0 mm 2 mps 661 mmHg 47%
    09:00 +24°C° 0 mm 2 mps 661 mmHg 40%
    10:00 +25°C° 0 mm 3 mps 661 mmHg 38%
    11:00 +26°C° 0 mm 3 mps 661 mmHg 36%
    12:00 +27°C° 0 mm 3 mps 661 mmHg 34%
    13:00 +28°C° 0 mm 3 mps 661 mmHg 33%
    14:00 +28°C° 0 mm 4 mps 660 mmHg 33%
    15:00 +28°C° 0 mm 4 mps 660 mmHg 32%
    16:00 +27°C° 0 mm 3 mps 659 mmHg 36%
    17:00 +26°C° 0 mm 3 mps 659 mmHg 39%
    18:00 +24°C° 0 mm 2 mps 659 mmHg 42%
    19:00 +23°C° 0 mm 2 mps 659 mmHg 48%
    20:00 +21°C° 0 mm 1 mps 659 mmHg 54%
    21:00 +19°C° 0 mm 1 mps 659 mmHg 60%
    22:00 +19°C° 0.1 mm 1 mps 659 mmHg 64%
    23:00 +18°C° 0.1 mm 1 mps 658 mmHg 68%
    Show more